Location: Caualo
(45.5667°N, 10.8667°E)
Time: 00:25:38
(UTC+00:00)

In-Cosmos 22 Rocket - Pass Details

Date: 08 October 2020
Orbit: 790 x 889 km, 81.2° (Epoch: 27 October)

Event Time Altitude Azimuth Distance (km) Brightness Sun altitude
Rises 21:15:14 0° 336° (NNW) 3,307 8.0 -44.2°
Reaches altitude 10° 21:18:05 10° 322° (NW) 2,366 7.1 -44.6°
Enters shadow 21:18:35 12° 318° (NW) 2,226 6.9 -44.6°
